Location: Hermaringen
(48.5952°N, 10.2585°E)
Time: 06:56:47
(UTC+00:00)

Altair - Pass Details

Date: 25 February 2026
Orbit: 1502 x 1682 km, 47.2° (Epoch: 9 March)

Event Time Altitude Azimuth Distance (km) Brightness Sun altitude
Rises 08:18:10 0° 289° (WNW) 4,684 9.5 18.4°
Reaches altitude 10° 08:21:26 10° 282° (WNW) 3,720 9.1 18.8°
Maximum altitude 08:29:48 38° 219° (SW) 2,245 8.6 19.9°
Drops below altitude 10° 08:38:27 10° 156° (SSE) 3,834 11.0 20.9°
Sets 08:41:54 0° 149° (SSE) 4,843 11.5 21.3°
